This is the latest recevied weather packets stored in our database for station/object KI4HRG. If no packets are shown the sender has not sent any weather packets the latest 10 day(s).
| Time | Temp. | Humidity | Pressure | Rain* | Wind** | Luminosity | Snow |
|---|---|---|---|---|---|---|---|
| 1788005957 | 22.22° C | 99% | 1019 hPa | 0 mm | - | 48 W/m² | - |
| 1788005653 | 21.67° C | 99% | 1018.9 hPa | 0 mm | - | 43 W/m² | - |
| 1788005347 | 21.11° C | 99% | 1019 hPa | 0 mm | - | 37 W/m² | - |
| 1788005046 | 21.11° C | 99% | 1018.7 hPa | 0 mm | - | 29 W/m² | - |
| 1788004745 | 20.56° C | 99% | 1018.7 hPa | 0 mm | - | 23 W/m² | - |
| 1788004440 | 20.56° C | 99% | 1018.6 hPa | 0 mm | - | 21 W/m² | - |
| 1788004139 | 20.56° C | 99% | 1018.7 hPa | 0 mm | - | 17 W/m² | - |
| 1788003838 | 20.56° C | 99% | 1018.6 hPa | 0 mm | - | 14 W/m² | - |
| 1788003533 | 20.56° C | 99% | 1018.7 hPa | 0 mm | - | 10 W/m² | - |
| 1788003233 | 20.56° C | 99% | 1018.5 hPa | 0 mm | - | 7 W/m² | - |
| 1788002932 | 20.56° C | 99% | 1018.4 hPa | 0 mm | - | 4 W/m² | - |
| 1788002628 | 20.56° C | 99% | 1018.5 hPa | 0 mm | - | 2 W/m² | - |
| 1788002323 | 20.56° C | 99% | 1018.5 hPa | 0 mm | - | 0 W/m² | - |
| 1788002018 | 20.56° C | 99% | 1018.4 hPa | 0 mm | - | 0 W/m² | - |
| 1788001713 | 20.56° C | 99% | 1018.3 hPa | 0 mm | - | 0 W/m² | - |
| 1788001413 | 20.56° C | 99% | 1018.2 hPa | 0 mm | - | 0 W/m² | - |
| 1788001108 | 20.56° C | 99% | 1018.2 hPa | 0 mm | - | 0 W/m² | - |
| 1788000803 | 20.56° C | 99% | 1018.2 hPa | 0 mm | - | 0 W/m² | - |
| 1788000498 | 20.56° C | 99% | 1018.2 hPa | 0 mm | - | 0 W/m² | - |
| 1788000193 | 20.56° C | 99% | 1018.2 hPa | 0 mm | - | 0 W/m² | - |
| 1787999889 | 21.11° C | 99% | 1018.1 hPa | 0 mm | - | 0 W/m² | - |
| 1787999585 | 21.11° C | 99% | 1018.1 hPa | 0 mm | - | 0 W/m² | - |
| 1787999282 | 20.56° C | 99% | 1018 hPa | 0 mm | - | 0 W/m² | - |
| 1787998976 | 21.11° C | 99% | 1018.1 hPa | 0 mm | - | 0 W/m² | - |
| 1787998675 | 21.11° C | 99% | 1018.1 hPa | 0 mm | - | 0 W/m² | - |
* Rain latest hour (hover to see other rain measurements)
** Current wind speed in m/s (hover to see current wind gust speed)